Карточка аэропорта UWOR

Внимание!
Информация на этой странице в стадии наполнения.
Если вы не увидели какой-то информации, или заметили неточность - пожалуйста сообщите нам!
Спасибо!
Команда RU-STAFF
Название аэропортаОрск
Название аэропорта (англ.)Orsk
Превышение909 ft. (277.1 m.)
Координаты510421°0', 583545°0'
Высота перехода3000
Эшелон переходаQNH>=1013hPa:FL40; QNH<1013hPa:FL50; QNH<977hPa:FL60
Коды ответчика1000
Зона ОрВДСамара РПИ (UWWW)
Данные METARUWOR 210900Z 10008MPS CAVOK 27/11 Q1023 R07/CLRD60 NOSIG RMK QFE742/0990
Проноз погоды (TAF)
NOTAMshow/hide NOTAM
AWOS   TABLE

Информация о ВПП

ВПП Длина ВПП (м.) Покрытие Курс ВПП Частота ILS
072700Асфальтобетон66109.55
252700Асфальтобетон246108.1

Диспетчерские позиции


Сценарии



Спутниковое изображение